High Desert Yearling Classic - 200 Miles McGill Nevada

Station: McGil Nevada - A Race

Distance: 200 Miles    

Release: 14-May-2019 07:00

Weather Release: Clear    Arrival: Mostly Sunny

Wind at Release: 1-3 MPH SW     Wind at Arrival: 5-8 MPH West

Temp at Release: 44°    Temp at Arrival: 73°

Lofts: 105

Birds: 403

Clocked: 382

Good Luck to Everyone!
Drops Pos Breeder Pigeon Name Color Sex Ent Arrival Speed To Win Eligible
1 Joe Zarachowicz - MD 1628-IF18-CCC BC C 1 10:31:48.51 1661.879 00:00:00 Yes
2 Team Elite - IL 0608-AU18-ELIT BB H 1 10:31:50.80 1661.579 00:00:02 Yes
3 Powerstroke Loft - UT 0362-AU18-PS BC C 1 10:31:52.96 1661.297 00:00:04 Yes
4 Skyraider - WA 8290-AU18-TCW Ludo S94 Line BC H 1 10:31:53.96 1661.166 00:00:05 Yes
5 Joe Zarachowicz - MD 1652-IF18-CCC BBSP C 2 10:31:54.94 1661.038 00:00:06 Yes
6 Lazy A C Loft - IN 0290-AU18-LAZY BB C 1 10:31:55.04 1661.025 00:00:07 Yes
7 Powerstroke Loft - UT 0165-AU18-PS BC H 2 10:31:56.09 1660.888 00:00:08 Yes
8 K & C Moore - BC 0670-CU18-KCM BB H 1 10:31:56.41 1660.846 00:00:08 Yes
9 Team Elite - IL 0683-AU18-ELIT BB C 2 10:31:56.73 1660.804 00:00:08 Yes
10 Fly & Criddle - ID 18105-AU18-RMR BB C 1 10:31:57.51 1660.702 00:00:09 Yes
11 Realdeal Loft - NE 4479-AU18-CIRP BB C 1 10:31:57.61 1660.689 00:00:09 Yes
12 1-Tonyloft - VA 7560-AU18-TONY BBWF C 1 10:31:58.31 1660.598 00:00:10 Yes
13 Powerstroke Loft - UT 0163-AU18-PS BC C 3 10:31:59.72 1660.414 00:00:11 Yes
14 Joe Zarachowicz - MD 1659-IF18-CCC BB H 3 10:32:00.65 1660.293 00:00:12 Yes
15 P N W Challenge - ID 0170-AU18-PNWC Pair#23 BC C 1 10:32:01.03 1660.243 00:00:13 Yes
16 Balikbayan Express - WA 0774-AU18-CEYX BB H 1 10:32:01.80 1660.142 00:00:13 Yes
17 Joe Zarachowicz - MD 1674-IF18-CCC BBWF C 4 10:32:02.76 1660.017 00:00:14 Yes
18 Triple P Racers - WI 0983-AU18-RRR BB H 1 10:32:02.90 1659.999 00:00:14 Yes
19 Twin Loft & Joe - MD 81750-IF18-BWI BCSP C 1 10:32:04.13 1659.838 00:00:16 Yes
20 P N W Challenge - ID 0155-AU18-PNWC PAIR#22 BB H 2 10:32:04.15 1659.836 00:00:16 Yes
21 Hp Loft - CA 0169-AU18-RUDE BB C 1 10:32:05.71 1659.632 00:00:17 Yes
22 Steve Beier - AZ 10857-AU18-JEDD BB C 1 10:32:06.72 1659.501 00:00:18 Yes
23 Powerstroke Loft - UT 0168-AU18-PS BC H 4 10:32:06.80 1659.490 00:00:18 Yes
24 Ilier Mesa - FL 5276-AU18-JEDD BB C 1 10:32:07.36 1659.417 00:00:19 Yes
25 Fly & Criddle - ID 18101-AU18-RMR BC H 2 10:32:09.25 1659.171 00:00:21 Yes
26 Terrace Loft - NJ 0671-AU18-ATS BC H 1 10:32:09.34 1659.159 00:00:21 Yes
27 Rocky Mountain Racing - UT 18796-AU18-RMR BB C 1 10:32:09.53 1659.134 00:00:21 Yes
28 Twin Loft & Joe - MD 80325-IF18-BWI BC H 2 10:32:10.17 1659.051 00:00:22 Yes
29 Marian Taloi - OR 42268-AU18-AA mom was 14 at final 2018 BBWF H 1 10:32:10.25 1659.040 00:00:22 Yes
30 Silver Dollar Loft - CO 0096-AU18-SD BB C 1 10:32:11.96 1658.818 00:00:23 Yes
31 A.D.S Hilltop Family Loft - NJ 16981-AU18-ARPU A.D.S JR. X 2401 BC C 1 10:32:12.52 1658.745 00:00:24 Yes
32 Warbird Loft - KS 8677-AU18-FH BBWF C 1 10:32:13.31 1658.642 00:00:25 Yes
33 Silver Dollar Loft - CO 0084-AU18-SD BBSP H 2 10:32:14.22 1658.523 00:00:26 Yes
34 Marian Taloi - OR 42283-AU18-AA my best ever inbred CU BBSP H 2 10:33:16.02 1650.513 00:01:28 Yes
35 Keyways - OR 15767-AU18-JEDD BC H 1 10:33:16.92 1650.397 00:01:28 Yes
36 Marian Taloi - OR 42255-AU18-AA 720/kannibaal BB H 3 10:33:18.18 1650.235 00:01:30 Yes
37 Joe Zarachowicz - MD 1643-IF18-CCC BB H 5 10:33:18.44 1650.201 00:01:30 Yes
38 Silver Dollar Loft - CO 0117-AU18-SD BB C 3 10:33:18.64 1650.175 00:01:30 Yes
39 War Eagle Loft - AL 0460-AU18-WEL RC H 1 10:33:19.32 1650.088 00:01:31 Yes
40 K/N Loft - HI 0286-AU18-FIA BB C 1 10:33:19.43 1650.073 00:01:31 Yes
40 Twin Loft & Joe - MD 82444-IF18-BWI BB C 3 10:33:19.43 1650.073 00:01:31 Yes
42 Racing Pigeon Mall - WA 0822-AU18-RPM BLK C 1 10:33:22.77 1649.643 00:01:34 Yes
43 Eagle Ridge Lofts - WY 18075-AU18-EAGL DC C 1 10:33:22.82 1649.637 00:01:34 Yes
44 Callahan Loft - MO 0368-AU18-AA BB C 1 10:33:23.79 1649.512 00:01:35 Yes
45 Kenneth Lum Lee - HI 0025-AU18-FIA BC C 1 10:33:25.39 1649.305 00:01:37 Yes
46 Ruybal Family Loft - CO 0248-AU18-POP BBWF C 1 10:33:26.68 1649.139 00:01:38 Yes
47 Powerstroke Loft - UT 0145-AU18-PS BB H 5 10:33:29.18 1648.817 00:01:41 Yes
48 S & S Racing - UT 0294-AU18-DWI BB C 1 10:33:29.39 1648.790 00:01:41 Yes
49 Bieche Lofts - CA 8493-AU18-BIE MLY H 1 10:33:29.59 1648.765 00:01:41 Yes
50 Scott/Carol Team - UT 0018-AU18-RW BB C 1 10:33:29.72 1648.748 00:01:41 Yes
51 Powerstroke Loft - UT 0187-AU18-PS BC C 6 10:33:30.03 1648.708 00:01:42 Yes
52 Romas Petravicius - CT 1076-IF18-CC RC C 1 10:33:31.96 1648.460 00:01:43 Yes
53 Bob Lehman - PA 1159-IF18-PGC BC H 1 10:33:32.34 1648.411 00:01:44 Yes
54 Larios Loft - CA 2923-AU18-FS BC H 1 10:33:32.54 1648.385 00:01:44 Yes
55 Lazy A C Loft - IN 0282-AU18-LAZY BC C 2 10:33:33.53 1648.258 00:01:45 Yes
56 Chick Clayton - ID 0805-AU18-IDA BB C 1 10:33:35.09 1648.057 00:01:47 Yes
57 Joe Carini - OR 1922-AU18-CAR RCSP H 1 10:33:37.03 1647.808 00:01:49 Yes
58 Team Elite - IL 0620-AU18-ELIT BB H 3 10:33:37.40 1647.760 00:01:49 Yes
59 B S Syndicate - IL 0017-AU18-BEKO Kawaii BB C 1 10:33:37.55 1647.741 00:01:49 Yes
60 Huan Qiu Zhang - NC 0078-AU18-HQZ BB C 1 10:33:40.77 1647.327 00:01:52 Yes
61 Fly & Criddle - ID 1856-AU18-KFLY FADE H 3 10:33:40.82 1647.321 00:01:52 Yes
62 Silver Dollar Loft - CO 0095-AU18-SD BB H 4 10:33:40.98 1647.300 00:01:52 Yes
63 Team Elite - IL 0624-AU18-ELIT BC H 4 10:33:42.06 1647.161 00:01:54 Yes
64 Sam Haslem - UT 1851-AU18-SAM SLT H 1 10:33:42.09 1647.157 00:01:54 Yes
65 Fly & Criddle - ID 18102-AU18-RMR BC H 4 10:33:43.98 1646.915 00:01:55 Yes
66 Racing Pigeon Mall - WA 0821-AU18-RPM BB C 2 10:33:49.40 1646.219 00:02:01 Yes
67 Lazy A C Loft - IN 0312-AU18-LAZY BC C 3 10:33:51.56 1645.942 00:02:03 Yes
68 Spirit In The Sky - IL 0218-AU18-LCC BB H 1 10:33:51.58 1645.939 00:02:03 Yes
69 Sam Haslem - UT 1852-AU18-SAM BB H 2 10:33:52.65 1645.802 00:02:04 Yes
70 A.D.S Hilltop Family Loft - NJ 87105-AU18-ARPU BOB 105 BC H 2 10:33:54.48 1645.567 00:02:06 Yes
71 B S Syndicate - IL 0034-AU18-BEKO Shango African God BB C 2 10:33:56.18 1645.349 00:02:08 Yes
72 Valley Lofts - PA 0482-IF18-HBG BC C 1 10:33:56.67 1645.287 00:02:08 Yes
73 Marty Hansen - CA 1148-AU18-LAKE BC C 1 10:34:01.10 1644.719 00:02:13 Yes
74 Yendez Loft - TX 0230-AU18-YEND PENC H 1 10:34:08.47 1643.775 00:02:20 Yes
75 Bob Bostwick - CA 0838-AU18-COCO BC C 1 10:34:20.19 1642.277 00:02:32 Yes
76 Lazy A C Loft - IN 0296-AU18-LAZY BB C 4 10:34:23.00 1641.919 00:02:34 Yes
77 ** J-Ireneo Loft ** - CA 4261-AU18-JEDD “ Boundless “ BB C 1 10:38:12.01 1613.198 00:06:24 Yes
78 Wise Loft - IL 7168-AU18-CHI BB C 1 10:40:57.33 1593.081 00:09:09 Yes
79 Flyhome Loft - CA 1890-AU18-FH BB H 1 10:41:01.51 1592.579 00:09:13 Yes
80 P N W Challenge - ID 0151-AU18-PNWC PAIR#5 BBWF C 3 10:41:04.28 1592.246 00:09:16 Yes
81 Marian Taloi - OR 30837-AU18-AA just nice BC C 4 10:41:04.97 1592.163 00:09:16 Yes
82 Powerstroke Loft - UT 0143-AU18-PS RRSD C 7 10:41:06.17 1592.019 00:09:18 Yes
83 Transilvania Loft - NV 6577-AU18-HP BBWF H 1 10:41:08.05 1591.794 00:09:20 Yes
84 Jones Boys - UT 0163-AU18-SLI 8673x1651 BC H 1 10:41:08.96 1591.685 00:09:20 Yes
85 Jones Boys - UT 0477-AU18-SLI 3032x6694 BC H 2 10:41:09.84 1591.579 00:09:21 Yes
86 Realdeal Loft - NE 4212-AU18-CIRP BC C 2 10:41:10.85 1591.458 00:09:22 Yes
87 Hollywood Lou Loft - FL 19625-AU18-AA BB C 1 10:41:13.38 1591.155 00:09:25 Yes
88 Evolution One Loft - UT 5611-AU18-OGN BCPD H 1 10:41:17.02 1590.718 00:09:29 Yes
89 Marian Taloi - OR 42237-AU18-AA 720/kannibaal/charly BCWF C 5 10:41:18.72 1590.515 00:09:30 Yes
90 Eagle Ridge Lofts - WY 18072-AU18-EAGL DC C 2 10:41:20.20 1590.337 00:09:32 Yes
91 P N W Challenge - ID 0793-AU18-IDA Pair#J BB H 4 10:41:20.97 1590.245 00:09:32 Yes
92 Mario Rodriguez - AZ 48921-AU18-ARPU SLT C 1 10:41:26.10 1589.631 00:09:38 Yes
93 Racing Pigeon Mall - WA 0823-AU18-RPM BC H 3 10:41:26.60 1589.571 00:09:38 Yes
94 Terrace Loft - NJ 0658-AU18-ATS BB C 2 10:41:28.98 1589.287 00:09:40 Yes
95 Bob Bostwick - CA 0843-AU18-COCO BC C 2 10:41:29.20 1589.260 00:09:41 Yes
96 Naylor Spring Syndicate Bc - BC 3269-CU18-PMTN BB C 1 10:41:30.72 1589.079 00:09:42 Yes
97 Yendez Loft - TX 0245-AU18-YEND BB C 2 10:41:32.54 1588.861 00:09:44 Yes
98 Bert Bruno - UT 12273-AU18-FOYS BCWF H 1 10:41:33.81 1588.709 00:09:45 Yes
99 Ed Kehl - UT 1702-AU18-WFA DC H 1 10:41:34.11 1588.673 00:09:46 Yes
100 Mc Laughlin Lofts - MA 2074-AU18-MCLO BB H 1 10:41:35.61 1588.494 00:09:47 Yes

There are 403 bird records

Note: These Race Results are unofficial and subject to change until verified by the Race Committee and declared final.